This demonstration page uses our WeatherBlox Daily Observations layout. Learn more.

Left ArrowRight Arrow

38.20091, -84.87328

Hourly Observations for November 27, 2022

Temp ( °F °C ) Dew Point ( °F °C ) Humidity (%) Winds ( mph kmh ) Pressure ( in mb ) Visibility ( mi km ) Precip ( " mm )
12:53 am 00:53 Cloudy 50 10 48 8.9 93 93 ESE 7 11 29.75 1008 10 16 0.03 0.76
1:01 am 01:01 Cloudy with Light Rain 50 10 48 8.9 93 93 ESE 8 13 29.76 1008 9 14 0.01 0.13
1:38 am 01:38 Cloudy with Light Rain 50 10 47 8.3 89 89 ESE 8 13 29.72 1006 10 16 0.01 0.25
1:53 am 01:53 Cloudy with Light Rain 50 10 47 8.3 89 89 ESE 8 13 29.69 1006 9 14 0.02 0.51
2:04 am 02:04 Cloudy with Light Rain 50 10 48 8.9 93 93 ESE 9 15 29.70 1006 9 14 0.01 0.25
2:28 am 02:28 Cloudy with Light Rain 50 10 48 8.9 93 93 ESE 9 15 29.68 1005 8 13 0.04 1.02
2:53 am 02:53 Cloudy with Heavy Rain 51 10.6 48 8.9 89 89 SE 10 17 29.64 1004 5 8 0.08 2.03
3:28 am 03:28 Cloudy with Heavy Rain 51 10.6 49 9.4 92 92 SE 13 20 29.62 1003 2 3 0.15 3.81
3:40 am 03:40 Cloudy with Light Rain 51 10.6 49 9.4 92 92 SE 12 19 29.61 1003 3 5 0.20 5.08
3:53 am 03:53 Cloudy with Light Rain 52 11.1 50 10 93 93 SSE 8 13 29.60 1002 10 16 0.21 5.33
4:53 am 04:53 Cloudy 52 11.1 49 9.4 89 89 ESE 8 13 29.57 1001 10 16 0.01 0.13
5:53 am 05:53 Mostly Cloudy 51 10.6 48 8.9 89 89 SE 9 15 29.53 1000 10 16 0.01 0.13
6:53 am 06:53 Cloudy 53 11.7 49 9.4 86 86 SSE 9 15 29.49 999 10 16 0.00 0.00
7:53 am 07:53 Cloudy 54 12.2 51 10.6 90 90 SSE 13 20 29.46 998 10 16 0.00 0.00
8:47 am 08:47 Cloudy with Light Rain 55 13 54 12 94 94 SW 22 35 29.48 998 4 6 0.01 0.25
9:00 am 09:00 Cloudy 56 13.3 52 11.1 87 87 WSW 15 24 29.48 998 10 16 0.01 0.13
9:15 am 09:15 Mostly Cloudy 56 13.3 50 10 80 80 SW 21 33 29.49 999 10 16 0.01 0.13
9:53 am 09:53 Sunny 57 13.9 50 10 77 77 SW 21 33 29.49 999 10 16 0.01 0.13
10:53 am 10:53 Partly Cloudy 59 15 47 8.3 64 64 SW 22 35 29.50 999 10 16 0.00 0.00
11:53 am 11:53 Cloudy 56 13.3 44 6.7 64 64 WSW 26 43 29.52 1000 10 16 0.00 0.00
12:53 pm 12:53 Cloudy 57 13.9 45 7.2 64 64 SW 23 37 29.51 999 10 16 0.00 0.00
1:53 pm 13:53 Cloudy 55 12.8 44 6.7 66 66 SW 24 39 29.52 1000 10 16 0.00 0.00
2:53 pm 14:53 Cloudy 55 12.8 44 6.7 66 66 SW 17 28 29.55 1001 10 16 0.00 0.00
3:23 pm 15:23 Cloudy 54 12.2 44 6.7 69 69 SW 25 41 29.58 1002 10 16 0.00 0.00
3:53 pm 15:53 Cloudy 54 12.2 44 6.7 69 69 SW 20 31 29.59 1002 10 16 0.00 0.00
4:53 pm 16:53 Cloudy 52 11.1 45 7.2 77 77 SW 23 37 29.62 1003 10 16 0.00 0.00
5:53 pm 17:53 Cloudy 50 10 46 7.8 86 86 SW 20 31 29.65 1004 7 11 0.00 0.00
6:41 pm 18:41 Cloudy with Light Rain 49 9.4 47 8.3 93 93 WSW 12 19 29.69 1006 3 5 0.01 0.13
6:53 pm 18:53 Cloudy with Light Rain 49 9.4 47 8.3 93 93 SW 16 26 29.68 1005 5 8 0.01 0.13
7:31 pm 19:31 Cloudy with Mist and Fog 49 9.4 47 8.3 93 93 SW 15 24 29.71 1006 4 6 0.01 0.13
7:53 pm 19:53 Cloudy with Mist and Fog 49 9.4 47 8.3 93 93 WSW 14 22 29.71 1006 4 6 0.01 0.13
8:04 pm 20:04 Cloudy with Light Rain 49 9.4 46 7.8 90 90 W 13 20 29.73 1007 3 5 0.02 0.51
8:53 pm 20:53 Cloudy with Mist and Fog 46 7.8 43 6.1 89 89 WNW 9 15 29.75 1008 5 8 0.03 0.76
9:10 pm 21:10 Cloudy 46 7.8 43 6.1 89 89 W 7 11 29.79 1009 10 16 0.00 0.00
9:53 pm 21:53 Cloudy 45 7.2 43 6.1 93 93 WNW 7 11 29.78 1008 10 16 0.00 0.00
10:44 pm 22:44 Cloudy 45 7.2 42 5.6 90 90 W 7 11 29.82 1010 10 16 0.00 0.00
10:53 pm 22:53 Cloudy 45 7.2 42 5.6 90 90 WNW 8 13 29.80 1009 10 16 0.00 0.00
11:03 pm 23:03 Cloudy 45 7.2 42 5.6 90 90 W 6 9 29.83 1010 10 16 0.00 0.00
11:14 pm 23:14 Cloudy 45 7.2 42 5.6 90 90 W 7 11 29.83 1010 10 16 0.00 0.00
11:53 pm 23:53 Cloudy 45 7.2 42 5.6 90 90 W 5 7 29.82 1010 10 16 0.00 0.00

Powered by AerisWeather